Dewpoint
22 21 18 16 15 12 12 9 9 11 10 11 14 13 11 6 7 8 8 8 8 8 10 14 28 50 56 57 58 57 54 56 55 53 52 60 61 61 61 62 62 62 61 62 62 62 63 63 63 63 64 64 65 66 67 67 67 68 68 68 67 67 66 66 65 65 65 64 63 63 63 63 63 63 64 64 64 64 65 65 66 66 66 65 66 67
23 21 21 19 18 14 14 14 16 13 15 11 12 11 9 9 9 9 7 7 8 15 11 20 43 52 55 57 57 55 56 55 55 53 53 54 61 61 61 61 61 61 61 61 61 62 62 62 63 63 63 65 65 65 66 66 65 66 67 68 67 67 66 66 66 65 64 63 64 63 62 62 62 63 63 64 63 63 64 65 65 66 65 65 65 66
22 20 22 20 19 17 17 17 16 14 14 12 10 12 9 8 8 8 12 14 10 9 14 13 33 47 53 56 56 55 56 55 55 53 53 53 55 61 61 61 60 60 60 61 61 61 62 62 62 62 62 63 64 64 64 64 65 65 66 65 66 66 66 66 66 65 64 62 62 62 61 62 61 61 63 63 63 64 64 64 64 65 64 64 64 63
23 22 23 21 19 16 17 15 16 17 20 15 13 11 9 11 8 6 15 17 13 14 14 15 15 19 40 52 55 56 56 55 54 57 57 59 58 58 61 60 60 60 60 60 60 60 61 62 62 61 62 62 62 63 62 63 64 64 64 63 64 64 64 64 65 65 64 64 63 62 62 62 61 61 63 62 62 61 61 63 63 63 63 63 63 63
21 18 22 19 17 16 16 18 16 15 12 20 12 12 10 10 9 9 12 15 20 16 20 17 20 21 36 51 54 53 56 56 55 56 56 56 56 57 59 60 61 60 60 60 60 60 61 61 61 61 61 62 62 61 61 61 61 61 60 61 62 63 64 64 65 64 63 63 62 60 61 60 60 60 60 60 61 61 62 63 63 63 63 63 63 62
19 20 21 19 17 16 16 16 16 14 13 13 19 10 10 10 10 10 15 11 15 13 19 11 9 12 24 46 53 52 54 54 54 54 54 54 54 56 57 58 60 61 61 60 60 61 61 61 61 61 61 61 61 61 60 60 61 61 61 61 62 62 62 63 62 63 63 62 61 60 60 60 58 59 60 61 60 62 61 62 62 62 63 62 62 62
20 23 20 19 18 17 16 16 17 13 13 12 12 14 10 11 11 9 8 10 9 7 17 20 10 11 22 35 48 50 52 52 51 53 54 54 55 55 56 58 59 60 60 61 61 61 61 61 60 60 60 61 61 61 61 60 61 61 62 63 63 63 63 63 63 63 63 62 62 62 62 61 61 60 59 60 60 60 61 61 61 61 62 62 62 62
19 20 19 20 18 17 17 16 17 12 12 10 12 13 10 9 9 11 8 9 13 22 20 18 16 9 18 27 44 49 51 51 51 51 52 53 57 56 57 57 59 60 60 60 61 61 61 61 60 60 61 61 60 60 59 60 60 61 62 63 63 63 63 63 63 63 63 63 62 61 61 61 60 60 60 60 60 60 61 60 60 61 61 61 61 62
21 19 19 19 20 17 16 17 17 12 11 12 14 12 10 9 9 8 8 12 15 12 6 18 15 9 14 23 45 49 49 50 51 51 52 54 56 56 59 57 57 60 61 61 61 60 60 60 60 60 60 61 60 59 59 59 60 61 61 61 61 61 61 62 62 62 62 62 61 60 60 59 60 60 60 60 59 60 60 60 60 60 61 61 61 61
18 18 19 18 17 16 17 16 14 11 11 13 13 14 12 12 13 8 10 8 14 9 8 13 17 9 11 28 46 49 49 50 51 52 52 54 56 56 58 58 60 61 61 61 62 61 61 61 61 61 61 61 60 60 60 60 60 60 60 60 60 60 60 60 60 61 61 61 61 60 59 58 58 59 59 59 59 59 59 59 59 60 60 60 61 61
17 27 23 18 17 18 18 16 13 12 13 14 10 7 7 15 17 24 19 18 16 8 12 14 16 10 8 27 43 46 48 51 51 53 55 57 58 58 60 60 60 60 61 62 61 61 61 61 61 60 60 60 60 60 60 59 59 59 59 59 59 59 60 60 60 60 59 60 60 59 59 58 58 58 58 58 59 59 59 59 59 60 60 61 61 61
17 20 19 18 23 19 18 15 14 14 11 9 10 9 8 12 14 14 13 17 8 9 14 16 14 10 9 18 39 47 49 51 52 53 55 58 58 59 59 60 60 61 61 61 61 60 59 60 60 60 59 59 58 58 58 57 58 58 58 58 58 58 58 59 59 59 59 59 59 58 58 58 58 58 58 58 58 59 59 59 60 60 60 60 61 61
14 17 18 18 28 17 17 15 14 12 10 9 12 10 7 10 4 2 6 3 6 8 13 16 14 11 10 19 39 46 49 51 53 53 55 57 58 59 60 60 61 61 61 60 60 59 59 59 59 59 58 58 57 57 57 57 57 57 57 57 57 57 58 58 58 58 58 58 58 58 58 58 58 58 58 58 59 60 60 60 59 59 59 60 60 61
14 16 16 16 20 22 17 15 13 12 9 9 9 12 6 4 0 -2 7 8 12 14 17 26 22 12 21 34 42 46 48 51 53 55 57 58 58 59 60 60 60 60 60 60 59 58 59 59 59 59 58 57 56 56 56 57 57 57 57 57 57 57 57 57 57 57 57 57 57 57 57 57 57 58 58 58 59 60 60 60 59 59 60 60 60 61
5 8 9 15 15 17 16 16 15 16 10 9 10 8 11 14 5 -3 7 1 5 9 15 26 12 9 24 36 49 51 51 51 54 57 58 59 59 59 60 60 60 59 59 59 59 58 58 59 59 58 57 56 56 56 56 56 56 56 56 56 56 56 57 57 57 57 57 57 57 57 57 57 58 58 59 60 60 60 60 60 60 60 60 60 61 61
6 13 17 16 17 16 15 17 11 9 9 10 10 10 10 7 19 6 16 14 14 11 10 26 25 36 37 50 52 52 53 53 55 56 57 58 58 59 59 58 58 58 58 58 58 58 58 58 58 57 57 56 56 55 56 56 56 56 56 56 56 56 56 57 57 57 57 57 57 57 57 58 59 60 60 60 60 61 61 60 60 60 60 60 61 62
13 12 18 17 17 15 15 16 14 11 11 13 9 11 11 16 17 11 12 20 14 16 21 31 39 44 49 50 51 53 53 54 55 56 56 57 57 58 57 57 57 57 58 58 57 57 57 57 57 57 56 56 56 55 55 55 55 55 56 56 56 56 56 56 56 56 56 56 56 57 58 58 58 58 59 59 59 59 60 60 59 59 59 60 61 61
11 17 19 15 15 15 14 15 13 13 16 8 9 11 17 21 20 12 6 9 9 11 14 35 37 40 37 33 50 51 51 53 54 55 56 56 57 56 53 55 56 56 56 57 57 57 57 56 56 56 56 56 56 55 55 55 56 55 55 55 55 56 56 56 56 56 56 56 56 56 56 56 56 56 56 57 57 57 57 57 57 58 57 58 58 58
18 12 14 16 15 16 12 11 11 12 10 8 10 12 9 9 7 15 15 4 4 5 20 33 39 37 38 38 48 49 50 51 53 54 54 55 55 53 52 54 55 56 55 55 55 55 56 56 56 56 56 56 56 56 56 56 56 56 55 56 56 55 55 56 56 56 56 56 56 56 55 55 55 55 55 56 56 56 56 56 56 56 57 56 55 55
25 13 17 20 15 15 11 10 13 9 9 13 11 9 14 16 18 11 14 15 15 8 23 30 37 33 42 42 48 49 51 52 53 53 54 54 54 53 53 54 54 54 55 55 55 55 55 55 56 55 55 55 55 55 56 56 56 55 55 55 55 56 56 55 55 55 55 55 55 54 54 53 53 54 54 54 54 54 54 55 55 55 55 54 54 54
13 21 11 19 20 14 12 13 12 10 10 9 10 9 11 15 18 13 18 11 14 16 18 25 29 33 37 43 47 50 52 53 53 53 54 54 53 54 54 53 54 54 54 54 54 54 54 55 55 55 54 54 54 55 55 55 54 54 54 54 54 54 54 54 54 54 54 54 53 53 52 53 53 53 53 53 53 53 53 53 53 53 54 53 52 52
15 16 19 23 13 14 14 14 13 8 9 9 11 10 10 13 11 7 12 17 25 25 25 24 18 27 33 43 46 50 53 53 54 54 53 53 53 53 53 53 53 53 53 54 54 53 54 54 54 54 53 54 54 54 54 54 54 54 54 53 53 53 53 53 53 53 53 53 53 52 52 52 52 53 52 52 52 52 52 52 52 52 51 51 51 52
19 23 18 12 17 14 13 13 13 9 8 8 9 11 11 17 14 9 6 10 20 26 30 25 20 21 35 41 45 51 53 53 54 53 52 52 52 52 52 53 53 53 53 53 53 53 53 54 54 53 53 53 54 54 54 54 54 53 53 52 52 52 52 53 53 52 52 52 52 52 52 52 52 52 52 51 51 51 51 51 51 50 49 49 49 50
34 12 15 17 19 20 19 17 16 11 8 8 8 15 12 13 15 11 16 20 16 23 23 20 14 20 37 45 48 52 53 53 53 52 52 52 52 52 52 52 52 52 52 53 53 53 53 53 53 53 53 53 53 53 53 53 53 52 52 52 52 51 52 52 52 52 52 52 51 51 51 51 51 51 51 50 50 49 49 49 49 49 48 48 48 48
8 16 16 14 12 14 17 13 12 13 11 16 13 17 10 13 20 24 21 21 18 25 24 18 13 25 37 48 51 51 52 52 52 52 51 50 51 51 51 52 52 51 51 52 52 53 53 52 52 52 52 52 52 52 52 52 52 51 51 51 51 51 51 52 52 52 51 51 50 50 50 50 50 49 49 49 49 48 47 47 47 47 47 47 47 47
12 21 14 13 10 10 9 12 13 12 11 17 26 14 12 12 18 16 11 13 10 18 22 17 18 32 45 50 50 51 51 50 51 51 51 51 50 51 51 51 51 51 51 51 51 51 51 51 51 52 51 52 52 51 51 51 51 51 51 51 51 51 51 52 52 51 51 50 50 49 49 49 48 48 48 48 48 46 46 45 45 46 47 47 46 47
16 28 20 21 19 16 16 18 21 23 14 11 15 12 13 14 15 19 21 14 12 17 21 23 29 40 45 47 47 49 49 49 49 50 50 50 50 50 50 50 50 50 50 50 51 50 50 50 51 51 51 51 51 50 50 50 50 50 50 50 51 51 52 52 51 51 50 49 49 48 48 48 47 47 47 46 46 45 45 45 45 45 46 46 46 47
26 19 23 25 24 22 22 21 24 26 14 17 16 13 15 16 21 18 16 15 22 21 16 26 37 41 43 47 48 48 49 49 49 49 49 50 50 50 50 50 50 50 50 51 50 50 49 50 50 50 51 50 50 50 50 50 50 50 50 49 50 51 51 51 50 49 49 48 48 47 47 47 47 46 46 45 45 44 44 44 45 45 45 46 46 46
21 15 24 29 31 35 35 35 36 37 34 32 19 19 21 19 21 16 19 24 23 17 20 27 39 39 44 47 48 49 49 49 49 49 49 50 49 49 49 49 49 49 50 50 50 49 49 50 50 50 50 50 50 50 50 49 49 49 49 50 50 50 50 50 49 48 48 48 47 47 47 47 46 45 45 44 44 44 43 44 44 44 44 44 44 46
14 18 27 33 31 32 33 34 35 36 35 35 36 35 29 21 21 19 23 26 23 21 25 34 41 39 44 48 49 49 49 49 49 49 49 49 49 49 49 49 49 49 49 49 49 49 49 49 49 50 49 49 49 49 49 48 48 48 49 50 50 50 50 49 49 48 48 47 47 46 45 45 44 44 43 43 43 43 43 43 43 43 43 43 43 44
15 16 34 33 29 28 32 34 36 36 35 34 36 37 35 32 34 31 33 34 36 37 36 39 41 39 41 48 49 49 49 49 48 48 48 48 48 48 48 48 48 48 49 49 49 49 48 49 49 50 49 49 49 48 48 47 48 48 49 49 50 49 49 49 48 48 47 46 45 44 44 43 43 42 42 42 42 42 42 42 42 42 42 42 42 42
24 19 32 28 25 26 31 31 31 32 35 35 34 35 35 31 29 33 30 34 33 36 39 40 37 37 42 49 49 49 48 48 47 48 47 47 48 48 48 48 48 48 48 48 48 48 48 49 49 49 49 48 48 48 47 47 48 48 48 49 49 48 48 48 47 46 45 45 44 43 43 42 42 41 41 41 41 41 41 41 41 41 41 42 42 42
24 28 24 24 24 24 30 30 29 25 26 26 28 34 36 37 38 38 38 39 39 41 37 29 28 36 45 48 48 47 48 48 47 47 47 47 47 47 47 47 48 48 48 48 47 48 48 49 49 49 49 49 48 48 48 47 47 47 48 48 48 48 47 47 47 46 46 45 44 43 43 42 41 40 40 40 40 40 40 40 40 40 41 41 42 41
29 28 24 26 24 24 30 29 24 18 14 19 28 34 39 39 37 37 37 38 39 39 35 36 34 45 47 48 47 47 47 47 47 48 48 47 47 47 47 47 47 47 47 47 47 48 48 49 49 49 49 49 49 49 48 48 47 47 48 47 47 46 46 45 45 45 44 44 43 43 41 41 40 39 39 39 39 39 39 39 39 40 40 40 40 40
28 27 25 28 25 24 28 26 17 13 16 27 31 34 39 41 39 41 41 40 40 38 37 40 44 46 47 48 48 48 48 48 48 47 47 47 47 46 47 47 46 46 47 46 46 47 48 49 48 48 48 48 48 47 47 47 46 46 45 46 45 45 44 43 43 43 43 42 41 40 39 39 39 38 38 38 39 39 39 39 39 39 40 39 39 39
27 28 27 28 24 26 27 22 14 13 25 32 38 40 41 41 40 38 37 39 39 39 38 40 45 47 47 47 47 47 47 47 47 47 47 47 47 46 46 46 46 46 45 45 47 48 48 48 48 47 48 48 47 46 46 45 45 44 44 44 43 43 42 41 41 40 40 39 39 39 38 38 38 38 38 38 38 38 38 38 38 38 39 39 38 38
30 30 29 27 26 23 22 22 22 25 28 32 37 40 40 38 38 32 28 33 37 38 40 44 46 46 46 46 46 46 46 46 46 45 47 47 47 46 46 46 45 44 44 46 47 48 48 48 48 48 48 47 47 46 45 44 43 42 42 41 41 40 40 40 40 39 40 40 40 40 39 39 39 38 38 38 38 38 38 38 38 38 39 37 37 37
30 27 29 27 24 25 24 21 22 21 20 25 33 35 38 37 36 34 34 32 36 39 42 46 46 45 45 46 46 46 46 45 42 44 46 46 45 43 43 44 44 44 46 47 48 48 48 48 48 48 47 46 45 44 44 43 42 41 40 40 40 39 39 39 39 40 40 39 40 39 39 39 39 38 38 38 37 37 37 37 37 37 38 36 36 35
32 31 29 24 25 25 23 22 17 19 20 24 31 34 38 39 38 35 30 31 34 42 43 46 45 45 45 45 45 46 45 42 42 45 46 44 43 43 43 43 44 45 47 48 48 47 47 47 47 47 46 45 43 44 43 42 41 40 40 40 39 38 38 38 38 38 37 38 38 38 38 38 38 38 37 37 37 37 36 36 36 37 35 35 35 35
30 27 27 28 25 21 20 19 19 15 21 30 31 35 39 39 35 29 22 23 33 43 45 46 45 45 45 45 46 46 45 42 43 45 45 42 42 43 43 43 45 46 47 47 48 47 47 47 46 45 45 44 43 43 43 41 40 40 39 39 38 38 37 37 36 36 36 37 37 38 38 39 39 38 37 36 36 36 36 37 35 34 34 34 34 34
27 26 28 26 25 21 21 19 18 21 27 31 34 37 39 37 30 22 21 26 33 43 45 46 46 46 46 45 46 44 45 44 44 44 42 42 42 42 43 45 45 46 46 46 46 46 46 46 45 45 44 44 43 42 40 40 39 39 39 38 37 36 36 35 35 36 36 36 37 37 37 37 38 37 37 37 37 37 37 35 34 34 34 34 34 34
25 25 26 26 25 24 19 23 23 19 27 34 34 39 40 34 26 27 30 34 40 44 44 45 45 46 46 45 46 42 42 44 43 42 41 42 42 42 44 44 45 46 46 46 45 46 46 45 44 43 43 43 42 41 39 38 38 38 37 36 35 35 34 34 35 35 35 35 36 37 37 37 38 38 38 38 36 35 35 35 35 34 34 34 34 34
27 24 24 26 24 24 14 18 16 13 20 39 40 38 37 29 30 32 36 40 42 45 45 44 45 45 46 44 42 43 43 43 42 41 41 41 42 42 44 44 45 45 45 45 45 45 44 43 43 43 42 40 40 40 39 38 38 37 36 34 34 34 34 34 35 35 35 35 36 36 36 36 37 37 37 36 36 34 34 34 34 34 34 34 33 33
31 23 22 22 28 24 17 19 20 25 31 37 39 35 37 35 36 36 40 41 42 44 45 45 44 45 45 43 43 43 43 42 41 40 40 41 42 43 44 44 45 45 45 45 44 44 43 42 42 41 39 40 40 41 41 40 38 36 34 34 34 34 35 34 34 34 34 35 34 35 36 36 36 36 36 36 35 35 34 34 34 34 33 33 33 33
31 29 27 27 26 25 24 25 29 32 35 36 39 39 36 37 38 38 40 41 44 43 43 45 44 43 43 43 43 43 42 41 40 40 40 40 41 43 43 44 44 44 44 43 43 42 42 41 41 40 39 38 39 39 39 37 36 36 35 36 35 34 33 33 33 33 33 33 33 34 34 34 34 35 34 34 35 34 34 33 33 32 33 33 32 32
35 34 33 33 33 37 38 38 37 35 35 36 37 37 37 39 39 39 42 43 42 43 45 44 43 43 43 43 42 42 41 40 39 39 39 40 41 42 43 44 44 44 43 43 42 41 41 40 39 38 38 39 40 39 39 38 36 35 34 34 34 33 33 33 33 33 32 33 33 33 33 33 33 33 34 34 34 35 34 34 34 33 32 32 32 32
36 36 32 32 36 31 27 34 35 37 36 37 37 38 38 38 38 39 40 41 42 43 43 43 43 42 42 42 42 41 40 39 38 38 39 40 41 42 42 43 43 43 42 41 41 40 40 39 38 38 38 38 38 37 36 34 34 34 34 33 33 33 33 33 33 33 32 31 32 32 32 32 32 33 33 33 33 34 34 33 33 33 33 33 32 32
32 36 33 34 33 27 28 36 38 36 35 37 36 36 38 38 39 39 39 39 41 42 43 43 43 42 42 41 41 40 39 39 38 38 38 39 40 41 42 42 42 42 42 41 40 39 38 38 37 37 37 36 35 34 34 34 34 34 33 33 33 32 32 32 32 31 31 31 32 32 32 32 32 33 32 32 32 33 33 33 33 33 33 32 32 32
32 34 30 34 34 38 39 39 37 36 36 36 36 37 38 37 39 39 40 41 42 42 42 42 42 42 41 41 40 40 39 38 38 38 38 39 40 40 41 41 41 41 40 39 39 38 38 37 37 36 36 35 34 33 33 33 33 33 33 33 33 32 32 32 32 31 31 31 31 32 33 32 32 32 32 31 32 31 31 32 32 33 33 33 33 32
34 32 33 35 32 32 34 35 38 33 33 35 36 37 37 39 39 39 40 41 41 41 41 41 41 41 41 40 40 39 38 38 37 37 37 38 39 40 40 40 40 40 39 39 38 37 37 37 36 36 35 34 33 33 33 33 33 34 33 33 32 32 32 32 31 30 30 31 31 31 31 32 32 32 32 32 32 32 33 32 34 33 32 33 35 35
33 32 33 31 31 30 34 37 36 34 34 35 35 38 38 38 39 40 40 40 41 41 41 40 39 39 39 41 41 41 39 37 37 37 37 38 38 39 39 39 38 38 38 37 36 36 36 36 36 35 34 33 33 33 33 33 33 34 34 33 33 32 31 31 31 31 31 31 31 31 31 31 31 31 31 31 31 31 31 31 32 34 35 35 35 34